Weather History for Faith, SD

Change the Weather History Date:

Friday, April 12, 2013

  Actual Average Record
Temperature  
Mean Temperature 34 °F 43 °F  
Max Temperature 40 °F 55 °F 84 °F (2003)
Min Temperature 27 °F 31 °F 15 °F (2004)
Degree Days  
Heating Degree Days 31 22  
Month to date heating degree days 353 289  
Since 1 July heating degree days 6762 6980  
Cooling Degree Days 0 0  
Month to date cooling degree days 0 0  
Year to date cooling degree days 0 0  
Moisture  
Dew Point 28 °F    
Average Humidity 80    
Maximum Humidity 100    
Minimum Humidity 59    
Precipitation  
Precipitation 0.00 in 0.04 in 0.03 in (2012)
Month to date precipitation 0.53 0.45  
Year to date precipitation 1.53 2.05  
Sea Level Pressure  
Sea Level Pressure 29.97 in    
Wind  
Wind Speed 7 mph (NNW)    
Max Wind Speed 16 mph    
Max Gust Speed 20 mph    
T = Trace of Precipitation, MM = Missing Value Source: NWS Daily Summary

Daily Weather History Graph

Daily Weather History Graph

Search for Another Location

Airport:

Trip Planner

Search our weather history database for the weather conditions in past years. The results will help you decide how hot, cold, wet, or windy it might be!

Date:

Astronomy

Apr. 12, 2013 Rise Set
Actual Time 6:08 AM MDT 7:30 PM MDT
Civil Twilight 5:37 AM MDT 8:00 PM MDT
Nautical Twilight 5:01 AM MDT 8:37 PM MDT
Astronomical Twilight 4:21 AM MDT 9:16 PM MDT
Moon 7:13 AM MDT (4/12) 10:09 PM MDT (4/12)
Length of Visible Light 14h 23m
Length of Day
13h 22m
Waxing Crescent, 5% of the Moon is Illuminated
Apr 12
Waxing Crescent
Apr 18
First Quarter
Apr 25
Full
May 2
Last Quarter
May 9
New

Hourly Weather History & Observations

Time (MDT) Temp. Windchill Dew Point Humidity Pressure Visibility Wind Dir Wind Speed Gust Speed Precip Events Conditions
12:56 AM 28.9 °F 21.9 °F 28.0 °F 96% 29.94 in - NW 6.9 mph - N/A   Unknown
1:56 AM 28.0 °F 18.6 °F 27.0 °F 96% 29.94 in - WNW 10.4 mph - N/A   Unknown
2:56 AM 28.9 °F 20.4 °F 27.0 °F 92% 29.92 in - WNW 9.2 mph - N/A   Unknown
3:56 AM 28.9 °F 21.1 °F 28.0 °F 96% 29.92 in - WNW 8.1 mph - N/A   Unknown
4:56 AM 30.0 °F 23.2 °F 28.0 °F 92% 29.91 in - NW 6.9 mph - N/A   Unknown
5:56 AM 28.9 °F - 28.0 °F 96% 29.92 in - Calm Calm - N/A   Unknown
6:56 AM 30.0 °F 24.1 °F 28.9 °F 96% 29.95 in - NNE 5.8 mph - N/A   Unknown
7:56 AM 28.0 °F 20.0 °F 28.0 °F 100% 29.97 in - ENE 8.1 mph - N/A   Unknown
8:56 AM 28.9 °F 21.1 °F 27.0 °F 92% 29.98 in - NE 8.1 mph - N/A   Unknown
9:56 AM 30.9 °F 23.5 °F 27.0 °F 85% 29.98 in - NNE 8.1 mph - N/A   Unknown
10:56 AM 33.1 °F 26.9 °F 25.0 °F 72% 29.99 in - North 6.9 mph - N/A   Unknown
11:56 AM 36.0 °F 29.6 °F 23.0 °F 59% 29.99 in - North 8.1 mph - N/A   Unknown
12:56 PM 37.9 °F 32.7 °F 26.1 °F 62% 29.97 in - NNW 6.9 mph - N/A   Unknown
1:56 PM 37.9 °F 31.5 °F 26.1 °F 62% 29.97 in - North 9.2 mph - N/A   Unknown
2:56 PM 37.9 °F 31.5 °F 27.0 °F 65% 29.97 in - North 9.2 mph - N/A   Unknown
3:56 PM 39.9 °F 33.4 °F 26.1 °F 58% 29.96 in - North 10.4 mph - N/A   Unknown
4:56 PM 39.0 °F 32.8 °F 27.0 °F 62% 29.98 in - North 9.2 mph - N/A   Unknown
5:56 PM 37.9 °F 32.1 °F 27.0 °F 65% 29.99 in - North 8.1 mph - N/A   Unknown
6:56 PM 37.0 °F 28.1 °F 30.0 °F 76% 30.00 in - NNW 15.0 mph - N/A   Unknown
7:56 PM 35.1 °F 30.1 °F 30.9 °F 85% 30.01 in - NNE 5.8 mph - N/A   Unknown
8:56 PM 34.0 °F - 32.0 °F 92% 30.02 in - Calm Calm - N/A   Unknown
9:56 PM 35.1 °F - 28.9 °F 78% 30.02 in - Calm Calm - N/A   Unknown
10:56 PM 33.1 °F 27.7 °F 30.0 °F 89% 30.00 in - NNW 5.8 mph - N/A   Unknown
11:56 PM 30.0 °F 23.2 °F 27.0 °F 88% 29.98 in - NW 6.9 mph - N/A   Unknown